CUTE-1 (CO-55)
1 27844U 03031E 24102.58405492 .00000441 00000+0 21449-3 0 9999
2 27844 98.6799 110.5408 0009316 345.3983 14.6925 14.23155246 78317


Ligne 0
Le nom commun de l'objetCUTE-1 (CO-55)
Ligne 1
Numéro de catalogue satellite27844U
Désignateur international03031E
Année de lancement03
Numéro de lancement dans l'année031
Object du lancementE
Époque (année)24
Époque (Jour de l'année en UTC)102.58405492
1ère dérivée du mouvement moyen .00000441
2ème dérivée du mouvement moyen 00000+0
B * Terme de glissement 21449-3
Type de jeu d'éléments0
Numéro d'élément 999
Ligne 2
Numéro de catalogue satellite27844
Inclinaison de l'orbite (degrés) 98.6799
Ascension droite du nœud ascendant (degrés)110.5408
Excentricité0009316
Argument du Périgée (degrés)345.3983
Anomalie moyenne (degrés) 14.6925
Mouvement moyen (révolutions / jour)14.23155246
Numéro de révolution à l'époque 7831
Valeurs déduites
Période Orbitale (en minutes)101.2 min.
Demi-grand axe (en kilomètres)7192.8 Km
Altitude à l‘Apogée (en kilomètres)828.5 Km
Altitude au Périgée (en kilomètres)815.1 Km

* Sources des TLE's : Celestrack